Tracking 33057 objects as of 23-Jan-2026
HD Live streaming from Space Station
objects crossing your sky now

INTELSAT 2 (PAS 2)

Track INTELSAT 2 (PAS 2) now!
INTELSAT 2 (PAS 2) is classified as:


NORAD ID: 23175
Int'l Code: 1994-040A
Perigee: 36,087.3 km
Apogee: 36,109.9 km
Inclination: 12.0 °
Period: 1,451.7 minutes
Semi major axis: 42469 km
RCS: 6.3096 m2 (large)
Launch date: July 8, 1994
Source: United States (US)
Launch site: FRENCH GUIANA (FRGUI)

12 Ku-band; Asia-Pacific.
Your satellite tracking list
Your tracking list is empty




NASA's NSSDC Master Catalog

Two Line Element Set (TLE):
1 23175U 94040A   26022.45876686 -.00000262  00000-0  00000-0 0  9998
2 23175  11.9714  35.7587 0002670 291.9722  84.9924  0.99194042114207
Source of the keplerian elements: AFSPC